Location: Millers Ferry
(32.0990°N, 87.3680°W)
Time: 08:43:51
(UTC-05:00)

CSL-04 Rocket - Visible Passes

Search period start: 25 March 2017 00:00
Search period end: 04 April 2017 00:00
Orbit: 807 x 860 km, 99.0° (Epoch: 23 March)

Date Brightness Start Highest point End Pass type
(mag) Time Alt. Az. Time Alt. Az. Time Alt. Az.
27 Mar 5.0 06:05:47 10° NNE 06:11:06 46° E 06:16:24 10° S visible
28 Mar 5.7 05:49:15 10° NE 05:54:10 32° E 05:59:02 10° SSE visible
29 Mar 6.4 05:33:00 10° NE 05:37:11 22° E 05:41:20 10° SE visible
30 Mar 6.7 05:17:14 10° ENE 05:20:10 14° E 05:23:04 10° SE visible
02 Apr 5.1 06:04:49 10° NNE 06:10:07 45° E 06:15:22 10° S visible
03 Apr 5.8 05:48:19 10° NE 05:53:10 30° E 05:57:58 10° SSE visible
